Meteo orario Ali Sabieh

Oggi, 26 Ottobre, Lunedi

Tempo Temperatura Precipitazioni Vento Pressione Umidità
00:00 +23°C° 0 mm 7 m/s 696 mm Hg 71%
01:00 +23°C° 0 mm 6 m/s 696 mm Hg 72%
02:00 +22°C° 0 mm 6 m/s 696 mm Hg 74%
03:00 +22°C° 0 mm 6 m/s 695 mm Hg 75%
04:00 +22°C° 0 mm 6 m/s 696 mm Hg 77%
05:00 +22°C° 0 mm 5 m/s 696 mm Hg 79%
06:00 +21°C° 0 mm 5 m/s 697 mm Hg 80%
07:00 +23°C° 0 mm 6 m/s 697 mm Hg 69%
08:00 +26°C° 0 mm 7 m/s 698 mm Hg 58%
09:00 +28°C° 0 mm 8 m/s 698 mm Hg 47%
10:00 +29°C° 0 mm 8 m/s 698 mm Hg 41%
11:00 +32°C° 0 mm 8 m/s 698 mm Hg 34%
12:00 +34°C° 0 mm 9 m/s 698 mm Hg 27%
13:00 +33°C° 0 mm 9 m/s 697 mm Hg 26%
14:00 +33°C° 0 mm 9 m/s 696 mm Hg 25%
15:00 +33°C° 0 mm 9 m/s 696 mm Hg 24%
16:00 +32°C° 0 mm 8 m/s 696 mm Hg 31%
17:00 +29°C° 0 mm 8 m/s 696 mm Hg 37%
18:00 +27°C° 0 mm 8 m/s 696 mm Hg 43%
19:00 +26°C° 0 mm 7 m/s 696 mm Hg 49%
20:00 +26°C° 0 mm 6 m/s 697 mm Hg 56%
21:00 +25°C° 0 mm 5 m/s 697 mm Hg 62%
22:00 +23°C° 0 mm 6 m/s 697 mm Hg 67%
23:00 +23°C° 0 mm 6 m/s 697 mm Hg 71%

Domani, 27 Ottobre, Martedi

Tempo Temperatura Precipitazioni Vento Pressione Umidità
00:00 +22°C° 0 mm 6 m/s 696 mm Hg 75%
01:00 +22°C° 0 mm 5 m/s 696 mm Hg 78%
02:00 +21°C° 0 mm 5 m/s 696 mm Hg 80%
03:00 +21°C° 0 mm 4 m/s 695 mm Hg 82%
04:00 +21°C° 0 mm 4 m/s 696 mm Hg 82%
05:00 +21°C° 0 mm 4 m/s 696 mm Hg 83%
06:00 +20°C° 0 mm 4 m/s 697 mm Hg 83%
07:00 +22°C° 0 mm 5 m/s 697 mm Hg 72%
08:00 +24°C° 0 mm 6 m/s 698 mm Hg 61%
09:00 +27°C° 0 mm 7 m/s 699 mm Hg 50%
10:00 +29°C° 0 mm 7 m/s 698 mm Hg 44%
11:00 +30°C° 0 mm 7 m/s 698 mm Hg 38%
12:00 +33°C° 0 mm 8 m/s 698 mm Hg 32%
13:00 +33°C° 0 mm 8 m/s 697 mm Hg 32%
14:00 +33°C° 0 mm 8 m/s 697 mm Hg 31%
15:00 +33°C° 0 mm 8 m/s 696 mm Hg 30%
16:00 +31°C° 0 mm 8 m/s 696 mm Hg 36%
17:00 +29°C° 0 mm 7 m/s 696 mm Hg 42%
18:00 +27°C° 0 mm 7 m/s 696 mm Hg 48%
19:00 +26°C° 0 mm 7 m/s 696 mm Hg 53%
20:00 +24°C° 0 mm 6 m/s 697 mm Hg 58%
21:00 +24°C° 0 mm 6 m/s 697 mm Hg 63%
22:00 +23°C° 0 mm 6 m/s 697 mm Hg 67%
23:00 +23°C° 0 mm 5 m/s 697 mm Hg 71%

Dopodomani, 28 Ottobre, Mercoledi

Tempo Temperatura Precipitazioni Vento Pressione Umidità
00:00 +22°C° 0 mm 5 m/s 696 mm Hg 75%
01:00 +22°C° 0 mm 5 m/s 696 mm Hg 76%
02:00 +21°C° 0 mm 4 m/s 696 mm Hg 77%
03:00 +21°C° 0 mm 4 m/s 696 mm Hg 78%
04:00 +21°C° 0 mm 3 m/s 696 mm Hg 77%
05:00 +21°C° 0 mm 3 m/s 696 mm Hg 76%
06:00 +21°C° 0 mm 3 m/s 696 mm Hg 76%
07:00 +23°C° 0 mm 4 m/s 697 mm Hg 65%
08:00 +26°C° 0 mm 5 m/s 697 mm Hg 55%
09:00 +27°C° 0 mm 6 m/s 698 mm Hg 44%
10:00 +29°C° 0 mm 6 m/s 698 mm Hg 39%
11:00 +30°C° 0 mm 7 m/s 698 mm Hg 34%
12:00 +33°C° 0 mm 7 m/s 697 mm Hg 30%
13:00 +33°C° 0 mm 7 m/s 697 mm Hg 29%
14:00 +33°C° 0 mm 8 m/s 697 mm Hg 28%
15:00 +34°C° 0 mm 8 m/s 696 mm Hg 27%
16:00 +32°C° 0 mm 8 m/s 696 mm Hg 32%
17:00 +29°C° 0 mm 8 m/s 696 mm Hg 37%
18:00 +28°C° 0 mm 7 m/s 696 mm Hg 43%
19:00 +27°C° 0 mm 6 m/s 697 mm Hg 47%
20:00 +26°C° 0 mm 6 m/s 697 mm Hg 52%
21:00 +25°C° 0 mm 5 m/s 698 mm Hg 57%
22:00 +25°C° 0 mm 5 m/s 697 mm Hg 62%
23:00 +23°C° 0 mm 5 m/s 697 mm Hg 67%

29 Ottobre, Giovedi

Tempo Temperatura Precipitazioni Vento Pressione Umidità
00:00 +22°C° 0 mm 5 m/s 697 mm Hg 72%
01:00 +22°C° 0 mm 5 m/s 697 mm Hg 76%
02:00 +22°C° 0 mm 4 m/s 696 mm Hg 79%
03:00 +21°C° 0 mm 4 m/s 696 mm Hg 82%
04:00 +21°C° 0 mm 4 m/s 696 mm Hg 84%
05:00 +21°C° 0 mm 4 m/s 696 mm Hg 85%
06:00 +20°C° 0 mm 3 m/s 697 mm Hg 87%
07:00 +23°C° 0 mm 4 m/s 698 mm Hg 73%
08:00 +26°C° 0 mm 5 m/s 698 mm Hg 60%
09:00 +28°C° 0 mm 6 m/s 699 mm Hg 46%
10:00 +29°C° 0 mm 6 m/s 699 mm Hg 39%
11:00 +32°C° 0 mm 7 m/s 699 mm Hg 32%
12:00 +34°C° 0 mm 7 m/s 698 mm Hg 25%
13:00 +34°C° 0 mm 8 m/s 698 mm Hg 25%
14:00 +34°C° 0 mm 8 m/s 697 mm Hg 25%
15:00 +34°C° 0 mm 8 m/s 697 mm Hg 24%
16:00 +32°C° 0 mm 8 m/s 697 mm Hg 30%
17:00 +30°C° 0 mm 7 m/s 697 mm Hg 35%
18:00 +28°C° 0 mm 7 m/s 697 mm Hg 40%
19:00 +27°C° 0 mm 6 m/s 697 mm Hg 45%
20:00 +26°C° 0 mm 5 m/s 697 mm Hg 50%
21:00 +25°C° 0 mm 4 m/s 698 mm Hg 55%
22:00 +25°C° 0 mm 4 m/s 698 mm Hg 58%
23:00 +23°C° 0 mm 4 m/s 697 mm Hg 60%

30 Ottobre, Venerdi

Tempo Temperatura Precipitazioni Vento Pressione Umidità
00:00 +23°C° 0 mm 4 m/s 697 mm Hg 63%
01:00 +22°C° 0 mm 4 m/s 697 mm Hg 68%
02:00 +22°C° 0 mm 3 m/s 697 mm Hg 74%
03:00 +21°C° 0 mm 3 m/s 696 mm Hg 79%
04:00 +21°C° 0 mm 3 m/s 697 mm Hg 81%
05:00 +21°C° 0 mm 3 m/s 697 mm Hg 84%
06:00 +20°C° 0 mm 3 m/s 697 mm Hg 86%
07:00 +22°C° 0 mm 4 m/s 698 mm Hg 74%
08:00 +26°C° 0 mm 5 m/s 699 mm Hg 62%
09:00 +28°C° 0 mm 5 m/s 699 mm Hg 50%
10:00 +29°C° 0 mm 6 m/s 699 mm Hg 42%
11:00 +32°C° 0 mm 6 m/s 699 mm Hg 34%
12:00 +34°C° 0 mm 7 m/s 698 mm Hg 26%
13:00 +34°C° 0 mm 7 m/s 698 mm Hg 26%
14:00 +34°C° 0 mm 8 m/s 697 mm Hg 26%
15:00 +34°C° 0 mm 8 m/s 696 mm Hg 26%
16:00 +32°C° 0 mm 8 m/s 696 mm Hg 30%
17:00 +30°C° 0 mm 7 m/s 696 mm Hg 34%
18:00 +28°C° 0 mm 7 m/s 696 mm Hg 39%
19:00 +27°C° 0 mm 6 m/s 697 mm Hg 45%
20:00 +26°C° 0 mm 5 m/s 697 mm Hg 52%
21:00 +25°C° 0 mm 4 m/s 697 mm Hg 59%
22:00 +25°C° 0 mm 4 m/s 697 mm Hg 63%
23:00 +23°C° 0 mm 4 m/s 697 mm Hg 68%

31 Ottobre, Sabato

Tempo Temperatura Precipitazioni Vento Pressione Umidità
00:00 +22°C° 0 mm 4 m/s 696 mm Hg 73%
01:00 +22°C° 0 mm 4 m/s 696 mm Hg 77%
02:00 +22°C° 0 mm 4 m/s 696 mm Hg 81%
03:00 +22°C° 0 mm 4 m/s 696 mm Hg 85%
04:00 +21°C° 0 mm 4 m/s 696 mm Hg 87%
05:00 +21°C° 0 mm 4 m/s 696 mm Hg 89%
06:00 +21°C° 0 mm 4 m/s 696 mm Hg 91%
07:00 +23°C° 0 mm 5 m/s 697 mm Hg 78%
08:00 +26°C° 0 mm 6 m/s 698 mm Hg 66%
09:00 +28°C° 0 mm 6 m/s 698 mm Hg 54%
Mostrare altro

Abbiamo bisogno del tuo consenso

Meteoprog e i nostri fornitori di servizi possono memorizzare e accedere a dati personali come cookie, identificatori di dispositivi o altre tecnologie simili sul tuo dispositivo e possono elaborare tali dati per personalizzare i contenuti e gli annunci, nonché fornire funzionalità dei social media e analizzarne il traffico.

  • Archiviare e/o accedere alle informazioni sul tuo dispositivo

    Cookie, identificatori di dispositivi o altre informazioni possono essere memorizzati o resi accessibili sul tuo dispositivo per le finalità sopra indicate.

  • Annunci e contenuti personalizzati, misurazione di annunci e contenuti, approfondimenti sul pubblico e sviluppo di prodotti

    Gli annunci e i contenuti possono essere personalizzati in base a un profilo. È possibile aggiungere più dati per personalizzare meglio annunci e contenuti. È possibile misurare il rendimento degli annunci e dei contenuti. È possibile ricavare informazioni sul pubblico che ha visto gli annunci e i contenuti. Tali dati possono essere utilizzati per sviluppare o migliorare l'esperienza, i sistemi e il software dell'utente.

Cliccando su “Accetto”, acconsenti all'uso di cookie, identificatori di dispositivo, web beacon o altre tecnologie simili. Puoi modificare le impostazioni nel browser del tuo dispositivo.

Per determinati scopi, è possibile fare affidamento su interessi legali, piuttosto che sul consenso. Puoi approfondire questo argomento consultando la nostra Informativa sulla privacy e sui cookie.